Time,TemperatureF,DewpointF,PressureIn,WindDirection,WindDirectionDegrees,WindSpeedMPH,WindSpeedGustMPH,Humidity,HourlyPrecipIn,Conditions,Clouds,dailyrainin,SoftwareType,DateUTC
2016-02-11 00:03:00,37.9,33.5,30.37,NE,46,0.0,0.0,84,0.00,CLR,,0.00,WeatherDisplay:10.37,2016-02-10 15:03:00,
2016-02-11 00:13:00,37.4,33.0,30.37,NE,46,0.0,0.0,84,0.00,CLR,,0.00,WeatherDisplay:10.37,2016-02-10 15:13:00,
2016-02-11 00:18:00,37.1,32.7,30.36,NE,47,0.0,0.0,84,0.00,CLR,,0.00,WeatherDisplay:10.37,2016-02-10 15:18:00,
2016-02-11 00:23:00,36.8,32.4,30.36,NE,47,2.3,2.3,84,0.00,CLR,,0.00,WeatherDisplay:10.37,2016-02-10 15:23:00,
2016-02-11 00:28:00,36.4,32.3,30.36,NE,47,1.2,1.2,85,0.00,CLR,,0.00,WeatherDisplay:10.37,2016-02-10 15:28:00,
2016-02-11 00:33:00,36.2,32.4,30.35,NE,46,3.5,3.5,86,0.00,CLR,,0.00,WeatherDisplay:10.37,2016-02-10 15:33:00,
2016-02-11 00:38:00,36.3,32.5,30.35,NE,46,2.3,2.3,86,0.00,CLR,,0.00,WeatherDisplay:10.37,2016-02-10 15:38:00,
2016-02-11 00:53:00,36.8,33.3,30.36,ESE,112,0.0,0.0,87,0.00,CLR,,0.00,WeatherDisplay:10.37,2016-02-10 15:53:00,
2016-02-11 00:58:00,36.8,33.3,30.35,ESE,112,0.0,0.0,87,0.00,CLR,,0.00,WeatherDisplay:10.37,2016-02-10 15:58:00,
2016-02-11 01:03:00,36.7,32.9,30.35,ESE,110,2.3,2.3,86,0.00,CLR,,0.00,WeatherDisplay:10.37,2016-02-10 16:03:00,
2016-02-11 01:08:00,36.5,32.7,30.36,ESE,110,0.0,0.0,86,0.00,CLR,,0.00,WeatherDisplay:10.37,2016-02-10 16:08:00,
2016-02-11 01:13:00,36.3,32.5,30.36,ESE,110,0.0,0.0,86,0.00,CLR,,0.00,WeatherDisplay:10.37,2016-02-10 16:13:00,
2016-02-11 01:18:00,36.2,32.4,30.36,ESE,109,0.0,0.0,86,0.00,CLR,,0.00,WeatherDisplay:10.37,2016-02-10 16:18:00,
2016-02-11 01:23:00,36.0,32.2,30.36,ESE,110,0.0,0.0,86,0.00,CLR,,0.00,WeatherDisplay:10.37,2016-02-10 16:23:00,
2016-02-11 01:28:00,35.9,32.1,30.36,ESE,110,1.2,1.2,86,0.00,CLR,,0.00,WeatherDisplay:10.37,2016-02-10 16:28:00,
2016-02-11 01:33:00,35.7,31.9,30.36,ESE,110,0.0,0.0,86,0.00,CLR,,0.00,WeatherDisplay:10.37,2016-02-10 16:33:00,
2016-02-11 01:43:00,35.5,32.0,30.36,ESE,109,2.3,2.3,87,0.00,CLR,,0.00,WeatherDisplay:10.37,2016-02-10 16:43:00,
2016-02-11 01:58:00,35.4,32.2,30.36,ESE,110,0.0,0.0,88,0.00,CLR,,0.00,WeatherDisplay:10.37,2016-02-10 16:58:00,
2016-02-11 02:03:00,35.5,32.3,30.36,ESE,110,0.0,0.0,88,0.00,CLR,,0.00,WeatherDisplay:10.37,2016-02-10 17:03:00,
2016-02-11 02:08:00,35.4,32.2,30.36,ESE,110,0.0,0.0,88,0.00,CLR,,0.00,WeatherDisplay:10.37,2016-02-10 17:08:00,
2016-02-11 02:13:00,35.4,32.2,30.35,ESE,110,0.0,0.0,88,0.00,CLR,,0.00,WeatherDisplay:10.37,2016-02-10 17:13:00,
2016-02-11 02:18:00,35.5,32.3,30.35,ESE,110,0.0,0.0,88,0.00,CLR,,0.00,WeatherDisplay:10.37,2016-02-10 17:18:00,
2016-02-11 02:28:00,35.4,32.2,30.35,ESE,110,0.0,0.0,88,0.00,CLR,,0.00,WeatherDisplay:10.37,2016-02-10 17:28:00,
2016-02-11 02:38:00,35.3,32.1,30.36,ESE,110,0.0,0.0,88,0.00,CLR,,0.00,WeatherDisplay:10.37,2016-02-10 17:38:00,
2016-02-11 02:43:00,34.7,31.2,30.36,ESE,110,1.2,1.2,87,0.00,CLR,,0.00,WeatherDisplay:10.37,2016-02-10 17:43:00,
2016-02-11 02:48:00,34.4,31.2,30.36,ESE,110,0.0,0.0,88,0.00,CLR,,0.00,WeatherDisplay:10.37,2016-02-10 17:48:00,
2016-02-11 02:53:00,34.3,31.1,30.35,ESE,110,0.0,0.0,88,0.00,CLR,,0.00,WeatherDisplay:10.37,2016-02-10 17:53:00,
2016-02-11 02:58:00,34.1,30.9,30.35,ESE,110,1.2,1.2,88,0.00,CLR,,0.00,WeatherDisplay:10.37,2016-02-10 17:58:00,
2016-02-11 03:03:00,34.0,30.8,30.35,ESE,110,0.0,0.0,88,0.00,CLR,,0.00,WeatherDisplay:10.37,2016-02-10 18:03:00,
2016-02-11 03:08:00,34.0,31.1,30.35,ESE,110,0.0,0.0,89,0.00,CLR,,0.00,WeatherDisplay:10.37,2016-02-10 18:08:00,
2016-02-11 03:13:00,34.1,31.2,30.35,ESE,110,0.0,0.0,89,0.00,CLR,,0.00,WeatherDisplay:10.37,2016-02-10 18:13:00,
2016-02-11 03:18:00,34.0,31.1,30.35,ESE,109,0.0,0.0,89,0.00,CLR,,0.00,WeatherDisplay:10.37,2016-02-10 18:18:00,
2016-02-11 03:23:00,34.1,31.2,30.35,ESE,110,2.3,2.3,89,0.00,CLR,,0.00,WeatherDisplay:10.37,2016-02-10 18:23:00,
2016-02-11 03:28:00,33.9,31.0,30.35,ESE,110,2.3,2.3,89,0.00,CLR,,0.00,WeatherDisplay:10.37,2016-02-10 18:28:00,
2016-02-11 03:33:00,33.6,30.7,30.35,East,85,3.5,3.5,89,0.00,CLR,,0.00,WeatherDisplay:10.37,2016-02-10 18:33:00,
2016-02-11 03:38:00,33.5,30.6,30.35,East,85,2.3,2.3,89,0.00,CLR,,0.00,WeatherDisplay:10.37,2016-02-10 18:38:00,
2016-02-11 03:43:00,33.7,31.1,30.35,East,85,2.3,2.3,90,0.00,CLR,,0.00,WeatherDisplay:10.37,2016-02-10 18:43:00,
2016-02-11 03:48:00,33.9,31.3,30.35,East,85,1.2,1.2,90,0.00,CLR,,0.00,WeatherDisplay:10.37,2016-02-10 18:48:00,
2016-02-11 03:58:00,34.1,31.5,30.35,East,85,1.2,0.0,90,0.00,CLR,,0.00,WeatherDisplay:10.37,2016-02-10 18:58:00,
2016-02-11 04:03:00,34.0,31.4,30.35,East,85,0.0,0.0,90,0.00,CLR,,0.00,WeatherDisplay:10.37,2016-02-10 19:03:00,
2016-02-11 04:08:00,34.0,31.4,30.35,East,84,1.2,1.2,90,0.00,CLR,,0.00,WeatherDisplay:10.37,2016-02-10 19:08:00,
2016-02-11 04:18:00,34.4,32.0,30.35,East,85,0.0,0.0,91,0.00,CLR,,0.00,WeatherDisplay:10.37,2016-02-10 19:18:00,
2016-02-11 04:23:00,34.5,31.9,30.35,East,85,1.2,0.0,90,0.00,CLR,,0.00,WeatherDisplay:10.37,2016-02-10 19:23:00,
2016-02-11 04:28:00,34.6,32.0,30.35,East,85,0.0,0.0,90,0.00,CLR,,0.00,WeatherDisplay:10.37,2016-02-10 19:28:00,
2016-02-11 04:33:00,34.6,32.0,30.34,East,84,0.0,0.0,90,0.00,CLR,,0.00,WeatherDisplay:10.37,2016-02-10 19:33:00,
2016-02-11 04:38:00,34.6,32.0,30.34,East,84,2.0,2.0,90,0.00,CLR,,0.00,WeatherDisplay:10.37,2016-02-10 19:38:00,
2016-02-11 04:43:00,34.4,31.8,30.35,East,85,1.2,0.0,90,0.00,CLR,,0.00,WeatherDisplay:10.37,2016-02-10 19:43:00,
2016-02-11 04:48:00,34.3,31.7,30.35,East,84,0.0,0.0,90,0.00,CLR,,0.00,WeatherDisplay:10.37,2016-02-10 19:48:00,
2016-02-11 04:53:00,34.3,31.7,30.35,East,85,0.0,0.0,90,0.00,CLR,,0.00,WeatherDisplay:10.37,2016-02-10 19:53:00,
2016-02-11 04:58:00,34.4,31.8,30.35,East,85,0.0,0.0,90,0.00,CLR,,0.00,WeatherDisplay:10.37,2016-02-10 19:58:00,
2016-02-11 05:03:00,34.4,31.8,30.35,East,85,1.2,0.0,90,0.00,CLR,,0.00,WeatherDisplay:10.37,2016-02-10 20:03:00,
2016-02-11 05:08:00,34.3,31.7,30.35,East,85,1.2,0.0,90,0.00,CLR,,0.00,WeatherDisplay:10.37,2016-02-10 20:08:00,
2016-02-11 05:13:00,34.4,31.8,30.35,East,85,0.0,0.0,90,0.00,CLR,,0.00,WeatherDisplay:10.37,2016-02-10 20:13:00,
2016-02-11 05:18:00,34.3,31.7,30.35,East,84,0.0,0.0,90,0.00,CLR,,0.00,WeatherDisplay:10.37,2016-02-10 20:18:00,
2016-02-11 05:23:00,34.3,31.7,30.35,East,85,1.2,1.2,90,0.00,CLR,,0.00,WeatherDisplay:10.37,2016-02-10 20:23:00,
2016-02-11 05:28:00,34.4,31.8,30.35,East,85,0.0,0.0,90,0.00,CLR,,0.00,WeatherDisplay:10.37,2016-02-10 20:28:00,
2016-02-11 05:33:00,34.6,32.0,30.35,East,85,1.2,0.0,90,0.00,CLR,,0.00,WeatherDisplay:10.37,2016-02-10 20:33:00,
2016-02-11 05:38:00,34.7,32.1,30.35,East,85,0.0,0.0,90,0.00,CLR,,0.00,WeatherDisplay:10.37,2016-02-10 20:38:00,
2016-02-11 05:43:00,34.6,32.0,30.35,East,85,2.3,2.3,90,0.00,CLR,,0.00,WeatherDisplay:10.37,2016-02-10 20:43:00,
2016-02-11 05:48:00,34.3,31.4,30.36,East,85,1.2,0.0,89,0.00,CLR,,0.00,WeatherDisplay:10.37,2016-02-10 20:48:00,
2016-02-11 05:53:00,34.2,31.3,30.36,East,85,0.0,0.0,89,0.00,CLR,,0.00,WeatherDisplay:10.37,2016-02-10 20:53:00,
2016-02-11 05:58:00,34.2,31.3,30.36,East,85,3.5,3.5,89,0.00,CLR,,0.00,WeatherDisplay:10.37,2016-02-10 20:58:00,
2016-02-11 06:03:00,34.0,31.1,30.36,East,85,3.5,3.5,89,0.00,CLR,,0.00,WeatherDisplay:10.37,2016-02-10 21:03:00,
2016-02-11 06:13:00,33.5,30.6,30.36,East,85,1.2,1.2,89,0.00,CLR,,0.00,WeatherDisplay:10.37,2016-02-10 21:13:00,
2016-02-11 06:18:00,33.5,30.9,30.36,East,85,0.0,0.0,90,0.00,CLR,,0.00,WeatherDisplay:10.37,2016-02-10 21:18:00,
2016-02-11 06:23:00,33.5,30.9,30.36,East,85,0.0,0.0,90,0.00,CLR,,0.00,WeatherDisplay:10.37,2016-02-10 21:23:00,
2016-02-11 06:28:00,33.4,30.8,30.36,East,85,0.0,0.0,90,0.00,CLR,,0.00,WeatherDisplay:10.37,2016-02-10 21:28:00,
2016-02-11 06:33:00,33.4,30.8,30.36,East,85,0.0,0.0,90,0.00,CLR,,0.00,WeatherDisplay:10.37,2016-02-10 21:33:00,
2016-02-11 06:38:00,33.4,30.8,30.36,East,85,0.0,0.0,90,0.00,CLR,,0.00,WeatherDisplay:10.37,2016-02-10 21:38:00,
2016-02-11 06:43:00,33.5,30.9,30.37,East,85,0.0,0.0,90,0.00,CLR,,0.00,WeatherDisplay:10.37,2016-02-10 21:43:00,
2016-02-11 06:48:00,33.7,31.1,30.37,East,85,3.5,3.5,90,0.00,CLR,,0.00,WeatherDisplay:10.37,2016-02-10 21:48:00,
2016-02-11 06:53:00,33.7,31.1,30.37,East,85,1.2,1.2,90,0.00,CLR,,0.00,WeatherDisplay:10.37,2016-02-10 21:53:00,
2016-02-11 06:58:00,33.8,31.2,30.37,East,84,1.2,1.2,90,0.00,CLR,,0.00,WeatherDisplay:10.37,2016-02-10 21:58:00,
2016-02-11 07:03:00,34.1,31.5,30.37,East,85,0.0,0.0,90,0.00,CLR,,0.00,WeatherDisplay:10.37,2016-02-10 22:03:00,
2016-02-11 07:08:00,34.1,31.5,30.37,East,85,0.0,0.0,90,0.00,CLR,,0.00,WeatherDisplay:10.37,2016-02-10 22:08:00,
2016-02-11 07:13:00,34.2,31.6,30.37,East,84,0.0,0.0,90,0.00,CLR,,0.00,WeatherDisplay:10.37,2016-02-10 22:13:00,
2016-02-11 07:18:00,34.7,32.1,30.37,East,85,1.2,1.2,90,0.00,CLR,,0.00,WeatherDisplay:10.37,2016-02-10 22:18:00,
2016-02-11 07:23:00,35.3,32.7,30.37,East,86,3.5,3.5,90,0.00,CLR,,0.00,WeatherDisplay:10.37,2016-02-10 22:23:00,
2016-02-11 07:28:00,36.5,33.8,30.37,ESE,112,5.8,5.8,90,0.00,CLR,,0.00,WeatherDisplay:10.37,2016-02-10 22:28:00,
2016-02-11 07:33:00,37.9,34.4,30.37,ESE,106,3.5,3.5,87,0.00,CLR,,0.00,WeatherDisplay:10.37,2016-02-10 22:33:00,
2016-02-11 07:38:00,38.7,34.6,30.37,ESE,106,3.5,3.5,85,0.00,CLR,,0.00,WeatherDisplay:10.37,2016-02-10 22:38:00,
2016-02-11 07:43:00,39.0,34.0,30.37,ESE,105,2.3,2.3,82,0.00,CLR,,0.00,WeatherDisplay:10.37,2016-02-10 22:43:00,
2016-02-11 07:48:00,39.1,33.8,30.37,ESE,105,3.5,3.5,81,0.00,CLR,,0.00,WeatherDisplay:10.37,2016-02-10 22:48:00,
2016-02-11 07:53:00,39.5,33.8,30.37,East,100,5.0,5.0,80,0.00,CLR,,0.00,WeatherDisplay:10.37,2016-02-10 22:53:00,
2016-02-11 07:58:00,39.8,33.8,30.37,East,101,5.8,5.8,79,0.00,CLR,,0.00,WeatherDisplay:10.37,2016-02-10 22:58:00,
2016-02-11 08:03:00,40.4,34.1,30.37,ESE,103,4.6,4.6,78,0.00,CLR,,0.00,WeatherDisplay:10.37,2016-02-10 23:03:00,
2016-02-11 08:08:00,40.8,34.1,30.37,ESE,107,5.8,5.8,77,0.00,CLR,,0.00,WeatherDisplay:10.37,2016-02-10 23:08:00,
2016-02-11 08:13:00,41.2,34.2,30.37,ESE,110,4.6,4.6,76,0.00,CLR,,0.00,WeatherDisplay:10.37,2016-02-10 23:13:00,
2016-02-11 08:18:00,41.6,34.3,30.37,ESE,112,4.6,4.6,75,0.00,CLR,,0.00,WeatherDisplay:10.37,2016-02-10 23:18:00,
2016-02-11 08:23:00,41.8,34.1,30.37,East,85,5.8,5.8,74,0.00,CLR,,0.00,WeatherDisplay:10.37,2016-02-10 23:23:00,
2016-02-11 08:28:00,41.8,34.1,30.38,ENE,78,5.8,5.8,74,0.00,CLR,,0.00,WeatherDisplay:10.37,2016-02-10 23:28:00,
2016-02-11 08:33:00,42.0,34.3,30.38,East,89,5.8,5.8,74,0.00,CLR,,0.00,WeatherDisplay:10.37,2016-02-10 23:33:00,
2016-02-11 08:38:00,42.5,34.5,30.38,East,87,4.6,4.6,73,0.00,CLR,,0.00,WeatherDisplay:10.37,2016-02-10 23:38:00,
2016-02-11 08:43:00,42.9,34.8,30.38,ESE,118,6.9,6.9,73,0.00,CLR,,0.00,WeatherDisplay:10.37,2016-02-10 23:43:00,
2016-02-11 08:53:00,44.1,34.9,30.38,East,91,6.9,6.9,70,0.00,CLR,,0.00,WeatherDisplay:10.37,2016-02-10 23:53:00,
2016-02-11 08:58:00,44.4,35.2,30.38,ENE,73,10.4,10.4,70,0.00,CLR,,0.00,WeatherDisplay:10.37,2016-02-10 23:58:00,
2016-02-11 09:03:00,44.6,35.1,30.38,ESE,105,5.8,5.8,69,0.00,CLR,,0.00,WeatherDisplay:10.37,2016-02-11 00:03:00,
2016-02-11 09:08:00,44.8,35.2,30.39,East,96,6.0,6.0,69,0.00,CLR,,0.00,WeatherDisplay:10.37,2016-02-11 00:08:00,
2016-02-11 09:13:00,45.1,35.5,30.39,ESE,108,4.6,4.6,69,0.00,CLR,,0.00,WeatherDisplay:10.37,2016-02-11 00:13:00,
2016-02-11 09:18:00,45.5,35.9,30.39,East,82,5.8,5.8,69,0.00,CLR,,0.00,WeatherDisplay:10.37,2016-02-11 00:18:00,
2016-02-11 09:28:00,46.3,35.9,30.38,ESE,110,9.2,9.2,67,0.00,CLR,,0.00,WeatherDisplay:10.37,2016-02-11 00:28:00,
2016-02-11 09:33:00,46.7,36.3,30.38,ESE,106,5.8,5.8,67,0.00,CLR,,0.00,WeatherDisplay:10.37,2016-02-11 00:33:00,
2016-02-11 09:38:00,47.2,36.8,30.38,ENE,64,6.9,6.9,67,0.00,CLR,,0.00,WeatherDisplay:10.37,2016-02-11 00:38:00,
2016-02-11 09:43:00,47.6,36.8,30.38,ENE,74,8.0,8.0,66,0.00,CLR,,0.00,WeatherDisplay:10.37,2016-02-11 00:43:00,
2016-02-11 09:48:00,47.6,36.8,30.38,ESE,112,10.4,10.4,66,0.00,CLR,,0.00,WeatherDisplay:10.37,2016-02-11 00:48:00,
2016-02-11 09:53:00,47.7,36.9,30.38,ESE,120,8.1,8.1,66,0.00,CLR,,0.00,WeatherDisplay:10.37,2016-02-11 00:53:00,
2016-02-11 09:58:00,47.9,36.7,30.38,East,82,8.1,8.1,65,0.00,CLR,,0.00,WeatherDisplay:10.37,2016-02-11 00:58:00,
2016-02-11 10:03:00,48.1,37.3,30.38,East,84,8.1,8.1,66,0.00,CLR,,0.00,WeatherDisplay:10.37,2016-02-11 01:03:00,